Tracking 32579 objects as of 17-Dec-2025
HD Live streaming from Space Station
objects crossing your sky now

BEIDOU 3 IGSO-2

Track BEIDOU 3 IGSO-2 now!


NORAD ID: 44337
Int'l Code: 2019-035A
Perigee: 35,636.3 km
Apogee: 35,952.1 km
Inclination: 55.2 °
Period: 1,436.1 minutes
Semi major axis: 42165 km
RCS: Unknown
Launch date: June 24, 2019
Source: People's Republic of China (PRC)
Launch site: Xichang Space Center, China (XSC)
Your satellite tracking list
Your tracking list is empty




NASA's NSSDC Master Catalog

Two Line Element Set (TLE):
1 44337U 19035A   25350.86584587 -.00000039  00000-0  00000-0 0  9998
2 44337  55.2266 160.4650 0037441 202.4261 154.0265  1.00270089 23833
Source of the keplerian elements: AFSPC